CW7368 Weather Reports


Display with metric or nautical units.
time (UTC)temp
F
wind
direction
speed
MPH
gust
MPH
rain 1hr
in
rain 24hr
in
rain mn
in
humidity
%
barometer
mb
20180523053805 46 231 0.0 2.0 0.00 0.20 0.20 75 995.4
20180523053304 46 230 0.0 3.0 0.00 0.20 0.20 74 995.4
20180523052805 46 231 0.0 1.0 0.00 0.20 0.20 74 995.3
20180523052304 47 231 0.0 2.0 0.00 0.20 0.20 74 995.2
20180523051805 47 231 0.0 3.0 0.00 0.20 0.20 74 995.1
20180523051305 47 230 1.0 3.0 0.00 0.20 0.20 73 995.0
20180523050805 47 228 1.0 3.0 0.00 0.20 0.20 73 995.0
20180523050304 47 227 1.0 5.0 0.00 0.20 0.20 74 995.0
20180523045805 48 234 0.0 2.0 0.00 0.20 0.20 73 994.8
20180523045305 48 234 0.0 3.0 0.00 0.20 0.20 73 994.8
20180523044805 48 237 0.0 5.0 0.00 0.20 0.20 73 994.7
20180523044304 48 211 0.0 3.0 0.00 0.20 0.20 73 994.6
20180523043804 48 211 1.0 3.0 0.00 0.20 0.20 73 994.5
20180523043305 49 211 1.0 3.0 0.00 0.20 0.20 73 994.4
20180523042805 49 209 1.0 3.0 0.01 0.20 0.20 73 994.2
20180523042305 49 196 1.0 3.0 0.02 0.20 0.20 74 994.1
20180523041805 49 196 0.0 1.0 0.02 0.20 0.20 74 994.0
20180523041305 49 196 2.0 6.0 0.02 0.20 0.20 73 994.0
20180523040805 49 240 1.0 3.0 0.02 0.20 0.20 76 993.9
20180523040304 49 232 2.0 5.0 0.02 0.20 0.20 76 993.7
20180523035805 48 207 0.0 1.0 0.02 0.20 0.20 78 993.7
20180523035304 48 207 0.0 1.0 0.02 0.20 0.20 79 993.6
20180523034805 48 207 0.0 0.0 0.02 0.20 0.20 77 993.6
20180523034305 49 207 0.0 0.0 0.02 0.20 0.20 76 993.5
20180523033805 49 207 0.0 0.0 0.02 0.20 0.20 75 993.4
20180523033304 50 207 0.0 3.0 0.02 0.20 0.20 72 993.2
20180523032805 50 205 1.0 3.0 0.01 0.20 0.20 65 993.2
20180523032305 52 205 2.0 7.0 0.00 0.19 0.19 58 993.2
20180523031805 54 206 2.0 7.0 0.00 0.19 0.19 55 993.2
20180523031305 55 216 1.0 9.0 0.00 0.19 0.19 61 992.8
20180523030805 55 247 1.0 2.0 0.00 0.19 0.19 59 992.6
20180523030305 55 247 0.0 5.0 0.00 0.19 0.19 56 992.5
20180523025805 55 219 0.0 5.0 0.00 0.19 0.19 60 992.4
20180523025304 55 216 0.0 3.0 0.00 0.19 0.19 61 992.3
20180523024805 55 216 0.0 3.0 0.00 0.19 0.19 60 992.3
20180523024305 55 216 0.0 3.0 0.00 0.19 0.19 61 992.3
20180523023805 55 216 0.0 3.0 0.00 0.19 0.19 60 992.2
20180523023305 55 216 0.0 8.0 0.00 0.19 0.19 61 992.2
20180523022804 55 246 0.0 1.0 0.00 0.19 0.19 64 992.2
20180523022305 54 246 0.0 1.0 0.00 0.19 0.19 66 992.1
20180523021805 54 246 0.0 0.0 0.00 0.19 0.19 67 992.0
20180523021304 53 246 0.0 0.0 0.00 0.19 0.19 70 991.9
20180523020805 52 245 0.0 1.0 0.00 0.19 0.19 71 991.8
20180523020305 52 246 0.0 0.0 0.00 0.19 0.19 70 991.8
20180523015805 53 245 0.0 2.0 0.00 0.19 0.19 68 991.8
20180523015305 53 245 0.0 1.0 0.00 0.19 0.19 67 991.7
20180523014805 54 246 0.0 1.0 0.00 0.19 0.19 66 991.7
20180523014305 54 246 0.0 3.0 0.00 0.19 0.19 65 991.6
20180523013805 55 246 1.0 3.0 0.00 0.19 0.19 63 991.5
20180523013305 55 246 0.0 1.0 0.00 0.19 0.19 63 991.5
20180523012805 55 246 0.0 5.0 0.00 0.19 0.19 61 991.4
20180523012305 55 245 1.0 3.0 0.00 0.19 0.19 58 991.4
20180523011806 55 246 2.0 3.0 0.00 0.19 0.19 58 991.3
20180523011305 55 252 1.0 5.0 0.00 0.19 0.19 60 991.3
20180523010805 55 254 0.0 3.0 0.00 0.19 0.19 60 991.2
20180523010305 55 254 0.0 3.0 0.00 0.19 0.19 60 991.2
20180523005804 55 254 0.0 1.0 0.00 0.19 0.19 64 991.3
20180523005305 54 254 1.0 3.0 0.00 0.19 0.19 62 991.2
20180523004805 54 258 0.0 2.0 0.00 0.19 0.19 63 991.2
20180523004305 54 258 0.0 3.0 0.00 0.19 0.19 64 991.2
20180523003806 54 257 0.0 3.0 0.00 0.19 0.19 65 991.2
20180523003305 53 257 0.0 2.0 0.00 0.19 0.19 66 991.1
20180523002806 53 257 1.0 3.0 0.00 0.19 0.19 65 991.2
20180523002305 53 257 0.0 2.0 0.00 0.19 0.19 67 991.2
20180523001805 53 256 0.0 0.0 0.00 0.19 0.19 68 991.2
20180523001304 52 256 0.0 3.0 0.00 0.19 0.19 67 991.1
20180523000805 52 256 1.0 3.0 0.00 0.19 0.19 70 991.1
20180523000305 51 256 1.0 3.0 0.00 0.19 0.19 69 991.2
20180522235805 51 256 1.0 6.0 0.00 0.19 0.19 71 991.1
20180522235304 51 260 1.0 3.0 0.00 0.19 0.19 71 991.0
20180522234805 51 259 1.0 3.0 0.00 0.19 0.19 71 991.0
20180522234305 51 269 1.0 6.0 0.00 0.19 0.19 72 990.9
20180522233805 50 287 1.0 3.0 0.00 0.19 0.19 72 990.9
20180522233305 51 287 0.0 2.0 0.00 0.19 0.19 73 990.8
20180522232805 50 287 0.0 2.0 0.00 0.19 0.19 74 990.8
20180522232305 50 287 0.0 2.0 0.00 0.19 0.19 73 990.8
20180522231805 50 287 1.0 3.0 0.00 0.19 0.19 71 990.8
20180522231305 50 242 0.0 1.0 0.00 0.19 0.19 74 990.8
20180522230805 50 242 0.0 2.0 0.00 0.19 0.19 75 990.7
20180522230305 50 242 0.0 1.0 0.00 0.19 0.19 76 990.6
20180522225804 50 242 0.0 3.0 0.00 0.19 0.19 77 990.5
20180522225305 48 242 0.0 0.0 0.00 0.19 0.19 82 990.4
20180522224805 47 242 0.0 0.0 0.00 0.19 0.19 82 990.5
20180522224305 47 242 0.0 1.0 0.00 0.19 0.19 83 990.4
20180522223805 47 242 0.0 0.0 0.00 0.19 0.19 84 990.3
20180522223306 46 242 0.0 0.0 0.00 0.19 0.19 85 990.3
20180522222805 46 242 0.0 0.0 0.00 0.19 0.19 84 990.2
20180522222305 46 242 1.0 3.0 0.00 0.19 0.19 84 990.2
20180522221805 46 242 1.0 3.0 0.00 0.19 0.19 84 990.2
20180522221305 46 242 0.0 3.0 0.00 0.19 0.19 85 990.1
20180522220805 46 242 1.0 3.0 0.00 0.19 0.19 84 989.9
20180522220304 47 242 0.0 0.0 0.00 0.19 0.19 85 989.9
20180522215805 47 242 0.0 0.0 0.00 0.19 0.19 86 989.8
20180522215305 46 242 0.0 0.0 0.00 0.19 0.19 85 989.8
20180522214805 46 242 0.0 0.0 0.00 0.19 0.19 87 989.7
20180522214305 46 242 0.0 0.0 0.00 0.19 0.19 89 989.7
20180522213804 46 242 0.0 0.0 0.00 0.19 0.19 90 989.6
20180522213305 45 242 0.0 0.0 0.00 0.19 0.19 92 989.5
20180522212805 45 242 0.0 0.0 0.00 0.19 0.19 93 989.4
20180522212305 44 242 0.0 0.0 0.00 0.19 0.19 94 989.4
20180522211805 44 242 0.0 0.0 0.00 0.19 0.19 94 989.4
20180522211305 44 242 0.0 0.0 0.00 0.19 0.19 95 989.4
20180522210805 43 242 0.0 0.0 0.00 0.19 0.19 95 989.3
20180522210305 43 242 0.0 0.0 0.00 0.19 0.19 95 989.2
20180522205805 42 242 0.0 0.0 0.00 0.19 0.19 94 989.1
20180522205305 42 242 0.0 0.0 0.00 0.19 0.19 95 988.8
20180522204804 41 242 0.0 0.0 0.00 0.19 0.19 94 988.8
20180522204305 40 242 0.0 0.0 0.00 0.19 0.19 94 988.7
20180522203804 39 242 0.0 0.0 0.00 0.19 0.19 94 988.7
20180522203305 39 242 0.0 0.0 0.00 0.19 0.19 94 988.5
20180522202805 39 242 0.0 0.0 0.00 0.19 0.19 94 988.4
20180522202305 39 242 0.0 0.0 0.00 0.19 0.19 94 988.2
20180522201804 39 242 0.0 0.0 0.00 0.19 0.19 94 988.3
20180522201305 39 242 0.0 0.0 0.00 0.19 0.19 93 988.2
20180522200805 40 242 0.0 0.0 0.00 0.19 0.19 94 988.0
20180522200305 40 242 0.0 0.0 0.00 0.19 0.19 94 987.9
20180522195805 40 242 0.0 0.0 0.00 0.19 0.19 94 987.8
20180522195305 40 242 0.0 0.0 0.00 0.19 0.19 94 987.7
20180522194804 40 242 0.0 0.0 0.00 0.19 0.19 93 987.7
20180522194305 39 242 0.0 0.0 0.00 0.19 0.19 93 987.5
20180522193805 39 242 0.0 0.0 0.00 0.19 0.19 93 987.4
20180522193305 39 242 0.0 0.0 0.00 0.19 0.19 93 987.3
20180522192804 39 242 0.0 0.0 0.00 0.19 0.19 93 987.3
20180522192305 40 242 0.0 0.0 0.00 0.19 0.19 93 987.2
20180522191807 40 242 0.0 14.0 0.00 0.19 0.19 93 987.1